QPF
0.00 0.01 0.00 0.00 0.00 0.00 0.02 0.02 0.01 0.00 0.00 0.00 0.00 0.01 0.01 0.01 0.01 0.00 0.01 0.01 0.01 0.02 0.02 0.01 0.01 0.02 0.02 0.02 0.02 0.03 0.03 0.03 0.03 0.04 0.05 0.02 0.01 0.01 0.01 0.02 0.02 0.03 0.04 0.04
0.01 0.00 0.00 0.00 0.00 0.00 0.01 0.03 0.02 0.01 0.00 0.00 0.00 0.00 0.00 0.01 0.01 0.01 0.01 0.01 0.02 0.02 0.02 0.01 0.01 0.02 0.03 0.04 0.04 0.03 0.03 0.03 0.02 0.03 0.03 0.03 0.02 0.01 0.01 0.01 0.01 0.01 0.01 0.02
0.00 0.00 0.00 0.00 0.00 0.00 0.00 0.01 0.02 0.01 0.00 0.00 0.00 0.00 0.00 0.00 0.00 0.00 0.01 0.01 0.02 0.02 0.02 0.02 0.02 0.03 0.04 0.05 0.05 0.04 0.03 0.03 0.03 0.02 0.02 0.02 0.02 0.01 0.00 0.00 0.01 0.01 0.01 0.01
0.00 0.00 0.00 0.00 0.00 0.00 0.00 0.00 0.01 0.01 0.01 0.01 0.01 0.00 0.00 0.00 0.00 0.00 0.00 0.01 0.01 0.01 0.01 0.01 0.01 0.02 0.03 0.03 0.03 0.03 0.03 0.03 0.03 0.02 0.02 0.01 0.01 0.01 0.01 0.00 0.00 0.01 0.01 0.01
0.01 0.00 0.00 0.00 0.00 0.00 0.00 0.00 0.00 0.01 0.01 0.01 0.01 0.01 0.00 0.00 0.00 0.00 0.00 0.01 0.01 0.01 0.01 0.01 0.01 0.01 0.02 0.02 0.02 0.03 0.03 0.03 0.03 0.02 0.02 0.01 0.01 0.01 0.01 0.01 0.01 0.01 0.01 0.01
0.01 0.01 0.01 0.00 0.00 0.00 0.00 0.00 0.01 0.01 0.01 0.01 0.00 0.01 0.01 0.00 0.01 0.00 0.00 0.00 0.01 0.01 0.01 0.01 0.00 0.00 0.01 0.01 0.01 0.01 0.01 0.01 0.02 0.02 0.02 0.01 0.01 0.01 0.01 0.01 0.01 0.01 0.01 0.01
0.00 0.01 0.01 0.02 0.01 0.00 0.00 0.01 0.01 0.01 0.01 0.01 0.00 0.00 0.01 0.01 0.00 0.00 0.00 0.00 0.01 0.01 0.01 0.01 0.01 0.00 0.00 0.01 0.01 0.01 0.01 0.01 0.01 0.01 0.01 0.02 0.01 0.01 0.01 0.01 0.01 0.01 0.01 0.01
0.00 0.00 0.00 0.01 0.01 0.01 0.01 0.01 0.02 0.01 0.01 0.00 0.00 0.00 0.00 0.00 0.00 0.00 0.00 0.00 0.01 0.02 0.02 0.01 0.00 0.00 0.00 0.01 0.01 0.01 0.01 0.01 0.01 0.01 0.01 0.01 0.01 0.01 0.01 0.01 0.01 0.01 0.01 0.01
0.00 0.00 0.00 0.00 0.00 0.01 0.01 0.02 0.01 0.01 0.01 0.00 0.00 0.01 0.01 0.00 0.00 0.00 0.00 0.00 0.01 0.02 0.02 0.01 0.00 0.00 0.00 0.00 0.01 0.01 0.01 0.01 0.01 0.01 0.01 0.01 0.01 0.01 0.01 0.01 0.01 0.01 0.01 0.01
0.01 0.00 0.00 0.00 0.00 0.00 0.00 0.01 0.01 0.01 0.01 0.01 0.00 0.01 0.01 0.00 0.00 0.00 0.00 0.00 0.00 0.01 0.02 0.02 0.00 0.00 0.00 0.00 0.01 0.01 0.00 0.00 0.01 0.01 0.01 0.01 0.01 0.01 0.01 0.01 0.01 0.01 0.02 0.02
0.00 0.00 0.00 0.00 0.00 0.00 0.00 0.00 0.01 0.01 0.01 0.01 0.01 0.01 0.01 0.00 0.00 0.00 0.00 0.00 0.00 0.01 0.02 0.02 0.01 0.00 0.00 0.00 0.01 0.01 0.01 0.01 0.01 0.01 0.00 0.01 0.01 0.01 0.01 0.01 0.01 0.01 0.02 0.02
0.00 0.00 0.00 0.00 0.00 0.00 0.00 0.00 0.00 0.01 0.01 0.01 0.01 0.01 0.01 0.00 0.00 0.00 0.00 0.00 0.00 0.00 0.02 0.03 0.01 0.00 0.00 0.00 0.01 0.01 0.01 0.01 0.01 0.01 0.01 0.01 0.01 0.01 0.01 0.02 0.02 0.02 0.02 0.02
0.01 0.01 0.01 0.00 0.00 0.00 0.00 0.00 0.00 0.01 0.01 0.01 0.01 0.01 0.00 0.00 0.00 0.00 0.00 0.00 0.00 0.01 0.01 0.03 0.03 0.01 0.00 0.01 0.01 0.01 0.01 0.01 0.00 0.00 0.01 0.01 0.01 0.01 0.01 0.02 0.03 0.03 0.03 0.03
0.01 0.01 0.00 0.00 0.00 0.00 0.00 0.00 0.00 0.01 0.02 0.01 0.01 0.00 0.00 0.00 0.00 0.00 0.00 0.01 0.01 0.01 0.01 0.03 0.05 0.02 0.01 0.01 0.00 0.01 0.01 0.01 0.00 0.00 0.01 0.01 0.01 0.01 0.02 0.03 0.04 0.04 0.04 0.03
0.00 0.00 0.00 0.00 0.00 0.00 0.00 0.00 0.00 0.01 0.01 0.01 0.01 0.00 0.00 0.00 0.01 0.00 0.01 0.01 0.01 0.00 0.01 0.02 0.05 0.05 0.03 0.02 0.01 0.01 0.01 0.01 0.01 0.01 0.01 0.01 0.02 0.02 0.02 0.03 0.03 0.04 0.04 0.03
0.00 0.00 0.00 0.00 0.00 0.00 0.00 0.00 0.00 0.00 0.00 0.01 0.00 0.00 0.00 0.00 0.00 0.00 0.00 0.00 0.00 0.01 0.01 0.02 0.05 0.09 0.05 0.04 0.03 0.02 0.01 0.01 0.01 0.01 0.01 0.01 0.02 0.02 0.02 0.03 0.03 0.04 0.05 0.05
0.00 0.00 0.00 0.00 0.00 0.00 0.00 0.00 0.00 0.00 0.00 0.01 0.01 0.01 0.00 0.00 0.00 0.00 0.00 0.01 0.01 0.01 0.01 0.02 0.05 0.10 0.07 0.05 0.05 0.04 0.03 0.02 0.01 0.01 0.01 0.02 0.02 0.02 0.03 0.03 0.03 0.04 0.05 0.06
0.00 0.01 0.01 0.00 0.00 0.00 0.00 0.00 0.00 0.00 0.00 0.01 0.01 0.01 0.01 0.01 0.00 0.01 0.01 0.01 0.01 0.01 0.01 0.02 0.05 0.07 0.09 0.06 0.05 0.04 0.03 0.02 0.01 0.01 0.01 0.01 0.02 0.03 0.03 0.04 0.04 0.04 0.04 0.05
0.01 0.01 0.01 0.01 0.01 0.00 0.00 0.00 0.00 0.00 0.00 0.00 0.00 0.00 0.00 0.00 0.00 0.00 0.00 0.01 0.01 0.01 0.01 0.01 0.03 0.03 0.06 0.06 0.04 0.03 0.03 0.02 0.01 0.01 0.02 0.02 0.02 0.02 0.03 0.03 0.04 0.05 0.04 0.04
0.01 0.01 0.01 0.01 0.01 0.01 0.00 0.00 0.00 0.00 0.01 0.00 0.00 0.00 0.00 0.00 0.00 0.00 0.01 0.01 0.01 0.01 0.01 0.01 0.01 0.01 0.03 0.05 0.04 0.03 0.03 0.02 0.02 0.02 0.02 0.02 0.02 0.02 0.02 0.03 0.04 0.04 0.05 0.05
0.00 0.01 0.01 0.01 0.01 0.00 0.00 0.00 0.00 0.01 0.01 0.01 0.00 0.00 0.00 0.01 0.01 0.01 0.01 0.01 0.01 0.01 0.00 0.00 0.01 0.01 0.02 0.02 0.02 0.02 0.03 0.03 0.02 0.02 0.02 0.02 0.03 0.03 0.02 0.02 0.03 0.03 0.04 0.05
0.00 0.01 0.01 0.01 0.01 0.01 0.00 0.00 0.01 0.01 0.01 0.01 0.00 0.01 0.01 0.01 0.01 0.01 0.00 0.01 0.00 0.00 0.00 0.00 0.00 0.01 0.01 0.01 0.01 0.01 0.02 0.03 0.03 0.02 0.02 0.02 0.02 0.02 0.03 0.03 0.03 0.03 0.04 0.04
0.00 0.00 0.01 0.01 0.01 0.00 0.01 0.01 0.01 0.01 0.01 0.01 0.01 0.01 0.01 0.01 0.00 0.00 0.00 0.00 0.00 0.00 0.00 0.00 0.01 0.01 0.01 0.01 0.01 0.01 0.01 0.02 0.03 0.03 0.02 0.02 0.02 0.02 0.02 0.02 0.03 0.03 0.03 0.03
0.00 0.01 0.01 0.01 0.01 0.01 0.01 0.01 0.01 0.01 0.01 0.01 0.01 0.01 0.01 0.01 0.00 0.00 0.00 0.00 0.00 0.00 0.00 0.01 0.01 0.01 0.01 0.01 0.01 0.01 0.01 0.01 0.01 0.02 0.02 0.02 0.02 0.02 0.02 0.02 0.03 0.03 0.04 0.04
0.00 0.00 0.01 0.01 0.01 0.01 0.01 0.01 0.01 0.01 0.01 0.01 0.01 0.01 0.01 0.00 0.00 0.00 0.00 0.00 0.00 0.00 0.00 0.00 0.01 0.01 0.01 0.02 0.01 0.01 0.01 0.01 0.01 0.01 0.01 0.02 0.01 0.01 0.02 0.01 0.02 0.03 0.04 0.05
0.00 0.00 0.01 0.01 0.01 0.01 0.01 0.01 0.01 0.01 0.01 0.01 0.01 0.01 0.00 0.00 0.00 0.00 0.00 0.00 0.00 0.00 0.00 0.00 0.01 0.01 0.01 0.01 0.01 0.01 0.01 0.01 0.01 0.01 0.01 0.01 0.01 0.01 0.01 0.01 0.01 0.02 0.03 0.04
MSLP
1021.58 1021.88 1022.26 1022.68 1023.07 1023.38 1023.54 1023.51 1023.26 1022.83 1022.26 1021.62 1020.99 1020.46 1020.07 1019.85 1019.79 1019.87 1020.01 1020.17 1020.29 1020.34 1020.34 1020.29 1020.25 1020.25 1020.34 1020.53 1020.82 1021.19 1021.59 1021.99 1022.35 1022.66 1022.92 1023.13 1023.33 1023.54 1023.76 1024.00 1024.25 1024.46 1024.62 1024.69
1022.31 1022.59 1022.94 1023.30 1023.63 1023.85 1023.93 1023.82 1023.52 1023.04 1022.44 1021.79 1021.17 1020.67 1020.33 1020.19 1020.22 1020.39 1020.62 1020.86 1021.04 1021.13 1021.11 1021.01 1020.89 1020.78 1020.74 1020.81 1020.99 1021.27 1021.63 1022.02 1022.40 1022.76 1023.07 1023.35 1023.60 1023.85 1024.12 1024.39 1024.66 1024.91 1025.10 1025.22
1022.98 1023.23 1023.53 1023.83 1024.08 1024.23 1024.24 1024.07 1023.72 1023.20 1022.58 1021.92 1021.31 1020.83 1020.53 1020.46 1020.58 1020.86 1021.21 1021.57 1021.85 1022.02 1022.05 1021.95 1021.78 1021.59 1021.44 1021.39 1021.45 1021.64 1021.93 1022.28 1022.67 1023.05 1023.40 1023.73 1024.02 1024.31 1024.59 1024.87 1025.14 1025.40 1025.61 1025.76
1023.53 1023.74 1023.98 1024.21 1024.40 1024.50 1024.45 1024.24 1023.85 1023.31 1022.66 1021.98 1021.37 1020.89 1020.62 1020.60 1020.80 1021.18 1021.67 1022.17 1022.60 1022.90 1023.03 1022.99 1022.83 1022.60 1022.38 1022.23 1022.19 1022.28 1022.49 1022.80 1023.17 1023.56 1023.94 1024.29 1024.61 1024.90 1025.18 1025.44 1025.70 1025.93 1026.14 1026.29
1023.93 1024.08 1024.26 1024.44 1024.58 1024.64 1024.57 1024.34 1023.93 1023.37 1022.70 1022.00 1021.35 1020.85 1020.57 1020.57 1020.82 1021.29 1021.90 1022.56 1023.17 1023.63 1023.91 1024.00 1023.91 1023.71 1023.47 1023.26 1023.14 1023.15 1023.29 1023.55 1023.89 1024.27 1024.65 1025.01 1025.33 1025.62 1025.87 1026.09 1026.30 1026.50 1026.67 1026.80
1024.17 1024.27 1024.40 1024.53 1024.64 1024.69 1024.62 1024.40 1024.00 1023.43 1022.73 1021.99 1021.29 1020.73 1020.40 1020.37 1020.63 1021.16 1021.88 1022.68 1023.47 1024.14 1024.61 1024.86 1024.90 1024.79 1024.59 1024.37 1024.22 1024.17 1024.26 1024.47 1024.78 1025.13 1025.50 1025.85 1026.16 1026.41 1026.62 1026.79 1026.94 1027.07 1027.18 1027.26
1024.30 1024.35 1024.43 1024.54 1024.64 1024.70 1024.65 1024.45 1024.06 1023.49 1022.77 1021.97 1021.20 1020.55 1020.14 1020.03 1020.27 1020.81 1021.60 1022.53 1023.48 1024.35 1025.04 1025.49 1025.72 1025.74 1025.63 1025.47 1025.32 1025.26 1025.31 1025.48 1025.75 1026.07 1026.42 1026.74 1027.01 1027.23 1027.38 1027.49 1027.56 1027.61 1027.65 1027.68
1024.36 1024.36 1024.41 1024.51 1024.62 1024.70 1024.68 1024.51 1024.14 1023.56 1022.80 1021.94 1021.08 1020.32 1019.79 1019.59 1019.76 1020.28 1021.10 1022.13 1023.23 1024.29 1025.19 1025.87 1026.29 1026.50 1026.52 1026.45 1026.35 1026.30 1026.34 1026.48 1026.72 1027.01 1027.32 1027.60 1027.84 1028.00 1028.10 1028.14 1028.14 1028.11 1028.08 1028.05
1024.39 1024.36 1024.39 1024.48 1024.60 1024.70 1024.70 1024.54 1024.18 1023.59 1022.79 1021.87 1020.91 1020.04 1019.40 1019.09 1019.17 1019.64 1020.47 1021.56 1022.78 1024.00 1025.10 1025.99 1026.64 1027.03 1027.22 1027.27 1027.26 1027.25 1027.30 1027.42 1027.63 1027.88 1028.14 1028.38 1028.57 1028.69 1028.73 1028.71 1028.64 1028.56 1028.46 1028.36
1024.43 1024.37 1024.38 1024.46 1024.57 1024.66 1024.67 1024.51 1024.13 1023.51 1022.67 1021.68 1020.64 1019.68 1018.94 1018.54 1018.54 1018.98 1019.80 1020.92 1022.23 1023.59 1024.86 1025.95 1026.79 1027.37 1027.73 1027.92 1028.00 1028.05 1028.12 1028.25 1028.42 1028.63 1028.85 1029.04 1029.18 1029.24 1029.24 1029.17 1029.06 1028.92 1028.78 1028.64
1024.46 1024.39 1024.37 1024.42 1024.50 1024.55 1024.51 1024.31 1023.89 1023.23 1022.35 1021.32 1020.24 1019.23 1018.44 1017.99 1017.96 1018.36 1019.19 1020.34 1021.71 1023.17 1024.57 1025.81 1026.82 1027.58 1028.09 1028.41 1028.59 1028.71 1028.81 1028.93 1029.08 1029.25 1029.42 1029.56 1029.64 1029.66 1029.62 1029.51 1029.37 1029.21 1029.04 1028.87
1024.50 1024.39 1024.34 1024.34 1024.34 1024.31 1024.19 1023.90 1023.41 1022.70 1021.80 1020.75 1019.68 1018.69 1017.92 1017.49 1017.48 1017.91 1018.75 1019.93 1021.35 1022.87 1024.36 1025.71 1026.84 1027.72 1028.36 1028.79 1029.06 1029.24 1029.37 1029.49 1029.61 1029.74 1029.86 1029.94 1029.98 1029.95 1029.87 1029.75 1029.59 1029.41 1029.23 1029.04
1024.50 1024.37 1024.25 1024.16 1024.05 1023.90 1023.65 1023.26 1022.69 1021.93 1021.02 1020.02 1019.01 1018.12 1017.45 1017.12 1017.20 1017.69 1018.59 1019.80 1021.25 1022.80 1024.32 1025.72 1026.91 1027.87 1028.59 1029.10 1029.43 1029.66 1029.81 1029.93 1030.03 1030.12 1030.18 1030.21 1030.20 1030.14 1030.03 1029.88 1029.72 1029.54 1029.36 1029.17
1024.46 1024.27 1024.08 1023.87 1023.63 1023.32 1022.93 1022.42 1021.77 1020.99 1020.11 1019.20 1018.33 1017.61 1017.12 1016.97 1017.19 1017.80 1018.77 1020.03 1021.48 1023.01 1024.52 1025.90 1027.10 1028.07 1028.82 1029.36 1029.74 1029.99 1030.15 1030.27 1030.35 1030.40 1030.42 1030.40 1030.34 1030.24 1030.11 1029.95 1029.78 1029.60 1029.42 1029.24
1024.35 1024.11 1023.82 1023.48 1023.08 1022.63 1022.09 1021.47 1020.76 1019.99 1019.19 1018.43 1017.77 1017.28 1017.05 1017.13 1017.54 1018.29 1019.34 1020.62 1022.05 1023.53 1024.96 1026.27 1027.40 1028.33 1029.05 1029.59 1029.97 1030.23 1030.40 1030.51 1030.58 1030.60 1030.58 1030.53 1030.43 1030.30 1030.13 1029.96 1029.78 1029.60 1029.43 1029.24
1024.19 1023.87 1023.47 1023.01 1022.48 1021.89 1021.23 1020.54 1019.82 1019.11 1018.45 1017.88 1017.47 1017.27 1017.32 1017.66 1018.28 1019.17 1020.29 1021.57 1022.93 1024.30 1025.60 1026.78 1027.79 1028.62 1029.27 1029.76 1030.12 1030.38 1030.55 1030.66 1030.71 1030.72 1030.68 1030.59 1030.47 1030.31 1030.13 1029.93 1029.74 1029.55 1029.37 1029.18
1023.96 1023.57 1023.09 1022.53 1021.89 1021.21 1020.49 1019.77 1019.10 1018.50 1018.01 1017.69 1017.56 1017.65 1017.98 1018.57 1019.38 1020.39 1021.54 1022.77 1024.03 1025.24 1026.36 1027.36 1028.20 1028.90 1029.45 1029.87 1030.19 1030.43 1030.59 1030.70 1030.76 1030.76 1030.71 1030.61 1030.47 1030.29 1030.09 1029.88 1029.67 1029.46 1029.26 1029.04
1023.68 1023.23 1022.70 1022.08 1021.39 1020.68 1019.97 1019.30 1018.73 1018.29 1018.01 1017.94 1018.08 1018.45 1019.04 1019.83 1020.78 1021.85 1022.98 1024.12 1025.22 1026.24 1027.15 1027.93 1028.58 1029.12 1029.55 1029.89 1030.16 1030.38 1030.54 1030.65 1030.71 1030.72 1030.67 1030.57 1030.42 1030.23 1030.02 1029.79 1029.56 1029.33 1029.09 1028.85
1023.36 1022.89 1022.34 1021.72 1021.06 1020.38 1019.75 1019.20 1018.77 1018.52 1018.47 1018.64 1019.03 1019.63 1020.40 1021.33 1022.35 1023.40 1024.46 1025.45 1026.37 1027.17 1027.85 1028.42 1028.88 1029.26 1029.57 1029.83 1030.06 1030.25 1030.41 1030.53 1030.60 1030.62 1030.58 1030.48 1030.32 1030.13 1029.90 1029.66 1029.41 1029.15 1028.88 1028.60
1023.03 1022.57 1022.06 1021.49 1020.91 1020.35 1019.85 1019.46 1019.23 1019.18 1019.34 1019.72 1020.30 1021.05 1021.94 1022.92 1023.93 1024.91 1025.83 1026.66 1027.37 1027.95 1028.42 1028.79 1029.08 1029.32 1029.54 1029.73 1029.92 1030.10 1030.25 1030.37 1030.45 1030.47 1030.43 1030.33 1030.17 1029.97 1029.74 1029.49 1029.22 1028.93 1028.63 1028.31
1022.71 1022.31 1021.87 1021.43 1020.99 1020.59 1020.27 1020.07 1020.04 1020.19 1020.53 1021.06 1021.76 1022.59 1023.51 1024.46 1025.39 1026.26 1027.02 1027.66 1028.17 1028.55 1028.84 1029.05 1029.21 1029.36 1029.50 1029.65 1029.81 1029.97 1030.11 1030.22 1030.29 1030.30 1030.25 1030.14 1029.97 1029.76 1029.52 1029.26 1028.98 1028.67 1028.35 1027.99
1022.44 1022.14 1021.84 1021.54 1021.28 1021.08 1020.96 1020.96 1021.12 1021.43 1021.90 1022.53 1023.28 1024.11 1024.99 1025.85 1026.66 1027.37 1027.96 1028.42 1028.76 1028.99 1029.15 1029.25 1029.33 1029.42 1029.52 1029.65 1029.78 1029.92 1030.04 1030.13 1030.16 1030.14 1030.06 1029.92 1029.73 1029.51 1029.25 1028.98 1028.69 1028.37 1028.03 1027.65
1022.29 1022.12 1021.98 1021.87 1021.80 1021.79 1021.87 1022.06 1022.37 1022.80 1023.36 1024.02 1024.76 1025.54 1026.31 1027.05 1027.71 1028.25 1028.68 1029.00 1029.21 1029.33 1029.40 1029.45 1029.50 1029.57 1029.66 1029.77 1029.88 1029.99 1030.07 1030.11 1030.09 1030.01 1029.87 1029.68 1029.46 1029.20 1028.93 1028.65 1028.35 1028.03 1027.69 1027.30
1022.32 1022.31 1022.34 1022.41 1022.53 1022.71 1022.96 1023.29 1023.71 1024.21 1024.80 1025.45 1026.13 1026.81 1027.47 1028.06 1028.56 1028.96 1029.26 1029.46 1029.59 1029.65 1029.69 1029.73 1029.77 1029.84 1029.93 1030.03 1030.12 1030.18 1030.20 1030.17 1030.07 1029.91 1029.69 1029.44 1029.16 1028.87 1028.58 1028.29 1027.99 1027.67 1027.32 1026.94
1022.62 1022.76 1022.95 1023.18 1023.46 1023.79 1024.17 1024.60 1025.08 1025.62 1026.19 1026.78 1027.38 1027.95 1028.48 1028.93 1029.30 1029.58 1029.78 1029.91 1029.99 1030.03 1030.07 1030.11 1030.17 1030.24 1030.33 1030.40 1030.45 1030.45 1030.39 1030.27 1030.07 1029.82 1029.52 1029.19 1028.86 1028.53 1028.21 1027.90 1027.60 1027.29 1026.95 1026.58
1023.22 1023.51 1023.83 1024.20 1024.59 1025.01 1025.47 1025.94 1026.45 1026.97 1027.50 1028.03 1028.53 1028.99 1029.40 1029.74 1030.01 1030.21 1030.34 1030.42 1030.47 1030.51 1030.55 1030.60 1030.66 1030.73 1030.78 1030.81 1030.80 1030.72 1030.57 1030.35 1030.05 1029.71 1029.32 1028.93 1028.54 1028.17 1027.83 1027.51 1027.21 1026.91 1026.58 1026.22
Thickness
5578 5578 5570 5565 5561 5560 5558 5557 5555 5549 5536 5531 5530 5526 5522 5517 5513 5511 5511 5510 5509 5507 5506 5506 5507 5509 5511 5513 5516 5518 5521 5523 5525 5528 5532 5535 5538 5540 5543 5544 5547 5551 5554 5557
5573 5560 5550 5547 5546 5546 5545 5544 5542 5535 5523 5519 5518 5514 5510 5505 5500 5497 5495 5495 5494 5493 5494 5494 5495 5496 5498 5500 5501 5504 5506 5508 5511 5513 5516 5519 5523 5526 5529 5531 5534 5538 5542 5545
5557 5542 5538 5537 5536 5535 5533 5531 5527 5521 5513 5508 5506 5512 5503 5495 5487 5483 5481 5479 5478 5478 5479 5480 5481 5482 5484 5485 5487 5489 5492 5494 5496 5499 5502 5505 5510 5513 5517 5520 5523 5526 5529 5532
5540 5530 5528 5528 5523 5521 5524 5515 5509 5506 5508 5514 5504 5515 5505 5489 5478 5473 5469 5467 5466 5465 5465 5466 5466 5468 5469 5470 5472 5474 5477 5480 5482 5485 5488 5491 5496 5500 5504 5506 5510 5513 5516 5520
5527 5519 5518 5516 5509 5506 5508 5501 5499 5499 5499 5498 5496 5495 5505 5479 5472 5464 5458 5454 5452 5451 5451 5451 5451 5452 5454 5455 5457 5460 5463 5466 5468 5471 5474 5477 5481 5485 5489 5492 5496 5500 5504 5507
5515 5508 5504 5501 5497 5494 5493 5494 5494 5490 5491 5491 5492 5489 5496 5472 5461 5454 5446 5441 5438 5438 5438 5438 5438 5439 5440 5442 5444 5446 5449 5452 5454 5457 5460 5462 5466 5470 5474 5479 5482 5487 5491 5494
5511 5503 5494 5490 5492 5490 5487 5492 5496 5495 5492 5497 5478 5475 5473 5454 5443 5438 5432 5428 5426 5425 5425 5425 5425 5426 5427 5428 5430 5433 5435 5438 5441 5443 5445 5448 5451 5455 5459 5463 5467 5472 5476 5480
5504 5501 5487 5481 5479 5478 5475 5477 5480 5482 5491 5492 5472 5469 5458 5434 5427 5423 5419 5415 5413 5412 5412 5411 5411 5412 5413 5414 5416 5419 5421 5424 5427 5429 5431 5434 5437 5441 5444 5448 5452 5456 5460 5465
5494 5490 5475 5469 5465 5466 5467 5463 5455 5457 5456 5457 5472 5456 5436 5423 5417 5412 5408 5405 5402 5400 5399 5398 5398 5398 5399 5400 5402 5404 5407 5410 5412 5415 5418 5420 5423 5427 5430 5433 5437 5441 5445 5450
5475 5473 5469 5460 5458 5452 5452 5449 5446 5445 5447 5459 5467 5458 5449 5419 5411 5404 5398 5394 5390 5388 5387 5386 5385 5385 5386 5387 5388 5390 5393 5395 5398 5401 5404 5407 5410 5413 5416 5420 5424 5428 5432 5436
5461 5461 5461 5455 5452 5450 5441 5435 5435 5436 5432 5438 5449 5453 5421 5411 5400 5391 5386 5382 5377 5376 5374 5373 5372 5372 5372 5373 5375 5377 5380 5382 5385 5387 5390 5394 5398 5401 5404 5409 5413 5416 5420 5424
5449 5450 5453 5449 5435 5426 5427 5426 5424 5425 5420 5415 5422 5429 5400 5393 5384 5378 5374 5370 5367 5364 5362 5360 5360 5360 5361 5361 5363 5365 5367 5369 5372 5375 5378 5382 5386 5389 5393 5397 5401 5405 5409 5413
5439 5437 5446 5450 5432 5417 5414 5408 5404 5402 5404 5406 5408 5418 5385 5377 5372 5367 5362 5359 5356 5353 5351 5349 5349 5349 5349 5350 5351 5352 5354 5356 5359 5362 5366 5370 5374 5378 5382 5386 5390 5394 5398 5402
5432 5429 5434 5444 5440 5420 5408 5399 5392 5389 5394 5399 5400 5401 5383 5372 5364 5359 5353 5348 5346 5343 5340 5339 5339 5339 5338 5338 5339 5340 5342 5344 5347 5350 5353 5358 5362 5366 5370 5374 5378 5382 5387 5391
5421 5422 5415 5412 5407 5401 5398 5394 5387 5380 5385 5384 5389 5378 5373 5363 5352 5346 5342 5338 5336 5333 5330 5328 5327 5328 5328 5328 5328 5329 5330 5332 5335 5338 5342 5346 5349 5354 5358 5362 5367 5371 5375 5380
5407 5406 5399 5398 5394 5389 5387 5386 5380 5374 5370 5367 5364 5364 5356 5345 5338 5335 5332 5328 5325 5323 5320 5318 5317 5316 5317 5317 5317 5318 5319 5321 5323 5327 5330 5334 5337 5342 5346 5351 5356 5361 5366 5370
5397 5390 5390 5399 5383 5378 5389 5384 5373 5366 5361 5354 5357 5356 5342 5335 5330 5326 5322 5318 5314 5311 5309 5308 5307 5305 5306 5306 5306 5307 5309 5310 5313 5316 5319 5323 5326 5330 5335 5340 5345 5350 5356 5361
5384 5381 5377 5379 5375 5377 5389 5363 5360 5355 5351 5343 5340 5336 5328 5322 5317 5314 5311 5307 5304 5301 5299 5297 5296 5295 5296 5296 5296 5297 5299 5301 5303 5306 5309 5312 5315 5320 5325 5330 5335 5340 5346 5351
5372 5370 5369 5367 5372 5382 5373 5356 5346 5340 5343 5335 5327 5323 5318 5310 5309 5312 5302 5295 5291 5289 5287 5286 5286 5286 5287 5287 5287 5288 5290 5293 5295 5297 5300 5302 5305 5309 5314 5319 5324 5329 5335 5342
5355 5355 5359 5354 5360 5372 5370 5343 5333 5330 5337 5328 5317 5312 5306 5300 5307 5308 5292 5284 5281 5278 5277 5276 5277 5277 5278 5278 5278 5279 5282 5283 5286 5288 5290 5293 5296 5299 5304 5309 5314 5319 5325 5331
5350 5346 5346 5347 5350 5362 5346 5328 5324 5330 5336 5315 5307 5301 5295 5291 5290 5285 5278 5274 5271 5269 5267 5267 5267 5267 5268 5268 5269 5271 5273 5274 5276 5278 5281 5284 5287 5291 5295 5299 5304 5309 5315 5321
5353 5348 5338 5337 5339 5349 5327 5320 5322 5323 5308 5301 5296 5290 5284 5280 5276 5272 5268 5265 5262 5260 5259 5258 5258 5258 5258 5258 5259 5261 5263 5265 5267 5269 5273 5276 5279 5282 5286 5290 5295 5300 5305 5311
5340 5343 5343 5338 5345 5329 5316 5313 5306 5298 5295 5291 5285 5279 5274 5269 5266 5263 5259 5257 5254 5251 5250 5249 5249 5249 5249 5248 5249 5251 5253 5256 5258 5261 5264 5268 5271 5274 5278 5282 5287 5291 5296 5302
5328 5316 5319 5319 5325 5315 5305 5299 5292 5286 5282 5278 5273 5268 5264 5260 5256 5253 5251 5249 5246 5243 5242 5241 5241 5241 5241 5240 5240 5242 5245 5247 5250 5252 5256 5260 5263 5267 5270 5273 5278 5282 5287 5292
5329 5311 5310 5311 5312 5303 5298 5290 5283 5277 5271 5266 5262 5258 5254 5250 5247 5244 5242 5240 5238 5235 5233 5232 5231 5232 5232 5232 5233 5234 5236 5238 5242 5245 5248 5251 5255 5258 5261 5265 5268 5272 5277 5280
5311 5306 5308 5316 5303 5295 5292 5281 5273 5267 5262 5257 5253 5249 5245 5241 5238 5236 5233 5231 5229 5227 5225 5224 5223 5223 5223 5224 5225 5226 5227 5229 5232 5237 5240 5243 5246 5249 5253 5256 5260 5263 5267 5272